Vancouver International Airport

CYVR · Columbia Británica, Canadá

METAR pasados CYVR · Aeropuerto Internacional de Vancouver

A continuación puedes ver los METAR de los últimos días. Selecciona un año para ver los METAR más antiguos, desde el año 2007 en adelante.

4 de diciembre de 2022

Hora Código Tiempo Temp. Visibilidad Cielo nuboso Viento METAR/SPECI
14:00
V
3 °C 20 mi - 300° 300° 3 kt METAR CYVR 042200Z 30003KT 20SM FEW040 FEW230 03/00 A2996 RMK SC1CI1 SC TR SLP149
13:00
V
2 °C 20 mi - 230° 230° 3 kt METAR CYVR 042100Z 23003KT 20SM FEW030 FEW230 02/M01 A2998 RMK SC1CI1 SC TR SLP153
12:00
V
2 °C 20 mi - 180° 180° 2 kt METAR CYVR 042000Z 18002KT 20SM FEW030 FEW230 02/M04 A2999 RMK SC1CI1 SC TR SLP159
11:00
V
0 °C 20 mi - 080° 080° 4 kt METAR CYVR 041900Z 08004KT 20SM FEW020 FEW230 00/M04 A3001 RMK SC1CI1 SC TR CI TR SLP166
10:00
V
-1 °C 20 mi - 100° 100° 7 kt METAR CYVR 041800Z 10007KT 20SM FEW013 FEW080 FEW230 M01/M04 A3002 RMK SC1AC1CI1 SC TR AC TR CI TR SLP168
09:00
V
-3 °C 20 mi - 110° 110° 8 kt METAR CYVR 041700Z 11008KT 20SM FEW025 FEW080 FEW230 M03/M05 A3002 RMK SC2AC1CI1 AC TR CI TR SLP168
08:00
V
-4 °C 20 mi - 080° 080° 6 kt METAR CYVR 041600Z 08006KT 20SM FEW015 FEW080 M04/M05 A3002 RMK SC1AC1 AC TR SLP169
07:00
V
-3 °C 15 mi - 130° 130° 3 kt METAR CYVR 041500Z 13003KT 040V150 15SM FEW050 M03/M05 A3003 RMK SC1 SC TR SLP171
06:00
V
-5 °C 15 mi - 090° 090° 6 kt METAR CYVR 041400Z 09006KT 15SM FEW040 FEW065 M05/M05 A3004 RMK SC1SC1 SC TR SC TR SLP176
05:00
V
-5 °C 15 mi - 090° 090° 5 kt METAR CYVR 041300Z 09005KT 15SM SKC M05/M07 A3006 RMK SLP182
04:00
V
-4 °C 15 mi - 090° 090° 4 kt METAR CYVR 041200Z 09004KT 15SM SKC M04/M06 A3009 RMK SLP192
03:00
V
-3 °C 15 mi - Var Var 2 kt METAR CYVR 041100Z VRB02KT 15SM FEW030 FEW067 M03/M06 A3012 RMK SC1AC1 SC TR AC TR SLP203
02:00
V
-4 °C 15 mi - 100° 100° 4 kt METAR CYVR 041000Z 10004KT 15SM FEW030 FEW080 M04/M06 A3014 RMK SC1AC1 SC TR AC TR SLP209
01:00
V
-3 °C 15 mi - 100° 100° 6 kt METAR CYVR 040900Z 10006KT 15SM SKC M03/M07 A3016 RMK SLP214
00:00
V
-2 °C 15 mi - 080° 080° 4 kt METAR CYVR 040800Z 08004KT 15SM SKC M02/M05 A3017 RMK SLP220

3 de diciembre de 2022

Hora Código Tiempo Temp. Visibilidad Cielo nuboso Viento METAR/SPECI
23:00
V
-2 °C 15 mi - 090° 090° 4 kt METAR CYVR 040700Z 09004KT 15SM SKC M02/M05 A3018 RMK SLP223
22:00
V
-3 °C 15 mi - 100° 100° 6 kt METAR CYVR 040600Z 10006KT 15SM FEW020 FEW070 M03/M05 A3019 RMK SC1AC1 SC TR AC TR SLP226
21:00
V
-2 °C 15 mi - 100° 100° 8 kt METAR CYVR 040500Z 10008KT 15SM FEW018 FEW070 M02/M05 A3020 RMK SC1AC1 SC TR AC TR SLP228
20:00
V
-2 °C 15 mi - 090° 090° 6 kt METAR CYVR 040400Z 09006KT 15SM FEW240 M02/M05 A3020 RMK CI1 CI TR SLP228
19:00
V
0 °C 15 mi - 090° 090° 7 kt METAR CYVR 040300Z 09007KT 15SM FEW240 M00/M04 A3019 RMK CI1 SLP225
18:00
V
2 °C 15 mi - 290° 290° 4 kt METAR CYVR 040200Z 29004KT 270V330 15SM FEW240 02/M03 A3018 RMK CI1 CI TR SLP223
17:00
V
1 °C 15 mi - 320° 320° 6 kt METAR CYVR 040100Z 32006KT 15SM FEW060 FEW210 FEW240 01/M02 A3019 RMK CU1CC1CI2 CU TR CC TR SLP224
16:00
V
2 °C 20 mi 24.000 ft 320° 320° 5 kt METAR CYVR 040000Z 32005KT 20SM FEW060 FEW210 BKN240 02/M02 A3019 RMK CU1CC2CI4 CU TR SLP225
15:00
V
4 °C 20 mi 24.000 ft 340° 340° 10 kt METAR CYVR 032300Z 34010KT 20SM FEW060 FEW100 FEW210 BKN240 04/M02 A3019 RMK CU1AC1CC2CI3 CU TR AC TR SLP225
14:00
V
4 °C 15 mi - 330° 330° 8 kt METAR CYVR 032200Z 33008KT 15SM FEW060 FEW240 04/M03 A3020 RMK CU1CI2 CU TR SLP230
13:00
V
3 °C 20 mi - 120° 120° 4 kt METAR CYVR 032100Z 12004KT 20SM FEW055 FEW100 FEW240 03/M02 A3020 RMK SC1AC1CI1 SC TR AC TR SLP228
12:00
V
3 °C 20 mi - 100° 100° 6 kt METAR CYVR 032000Z 10006KT 20SM FEW050 FEW100 SCT240 03/M02 A3021 RMK SC1AC1CI2 SC TR SLP234
11:00
V
2 °C 20 mi 11.000 ft 080° 080° 4 kt METAR CYVR 031900Z 08004KT 20SM FEW054 BKN110 BKN210 02/M03 A3023 RMK SC2AC3CC1 CC TR SLP238
10:00
V
0 °C 20 mi 5.600 ft 080° 080° 5 kt METAR CYVR 031800Z 08005KT 20SM BKN056 00/M03 A3021 RMK SC7 SLP232
09:00
V
0 °C 20 mi 5.600 ft 120° 120° 4 kt METAR CYVR 031700Z 12004KT 20SM BKN056 BKN095 00/M04 A3019 RMK SC6AC1 SLP224
08:00
V
0 °C 20 mi 5.800 ft Var Var 2 kt METAR CYVR 031600Z VRB02KT 20SM FEW047 OVC058 M00/M03 A3016 RMK SC2SC6 SLP217
07:00
V
0 °C 15 mi 5.300 ft 140° 140° 4 kt METAR CYVR 031500Z 14004KT 15SM SCT045 OVC053 00/M03 A3015 RMK SC4SC4 SLP212
06:00
V
0 °C 15 mi 5.600 ft 100° 100° 7 kt METAR CYVR 031400Z 10007KT 15SM SCT040 OVC056 M00/M03 A3013 RMK SC4SC4 SLP206
05:00
V
0 °C 15 mi 4.900 ft 080° 080° 3 kt METAR CYVR 031300Z 08003KT 15SM BKN049 BKN057 OVC063 00/M03 A3012 RMK SC5SC2SC1 SLP202
04:00
V
0 °C 15 mi 4.900 ft 060° 060° 4 kt METAR CYVR 031200Z 06004KT 15SM FEW027 BKN049 OVC061 00/M03 A3010 RMK SC1SC5SC3 SC TR SLP195
03:00
V
0 °C 15 mi 6.200 ft 100° 100° 4 kt METAR CYVR 031100Z 10004KT 15SM FEW030 SCT053 OVC062 M00/M02 A3010 RMK SC1SC4SC4 SC TR SLP196
02:00
V
0 °C 15 mi 5.900 ft 100° 100° 2 kt METAR CYVR 031000Z 10002KT 15SM FEW025 FEW049 BKN059 OVC070 00/M03 A3008 RMK SC1SC2SC5AC1 SC TR SLP190
01:00
V
0 °C 15 mi 5.500 ft 110° 110° 3 kt METAR CYVR 030900Z 11003KT 15SM FEW020 FEW045 BKN055 OVC063 00/M02 A3007 RMK SC1SC2SC5SC1 SC TR SLP185
00:00
V
0 °C 15 mi 4.200 ft 080° 080° 4 kt METAR CYVR 030800Z 08004KT 070V130 15SM BKN042 OVC049 00/M02 A3006 RMK SC5SC3 SLP183

2 de diciembre de 2022

Hora Código Tiempo Temp. Visibilidad Cielo nuboso Viento METAR/SPECI
23:28
V
1 °C 15 mi 3.800 ft 150° 150° 5 kt METAR CYVR 030728Z 15005KT 15SM BKN038 OVC045 01/M02 A3006 RMK SC5SC3 SLP183
23:00
V
1 °C 12 mi 4.300 ft 180° 180° 3 kt METAR CYVR 030700Z 18003KT 12SM -SN SCT035 OVC043 01/M01 A3006 RMK SC4SC4 SLP182
22:40
V
1 °C 12 mi 4.300 ft Var Var 2 kt METAR CYVR 030640Z VRB02KT 12SM -SN SCT034 OVC043 01/M01 A3006 RMK SC4SC4 SN VRY LGT SLP180
22:07
V
1 °C 15 mi 4.300 ft 090° 090° 5 kt METAR CYVR 030607Z 09005KT 15SM FEW030 BKN043 OVC053 01/M01 A3005 RMK SC1SC5SC3 SC TR SLP178
21:35
V
1 °C 12 mi 4.200 ft 100° 100° 6 kt METAR CYVR 030535Z 10006KT 12SM -RASN FEW027 BKN042 OVC052 01/M01 A3004 RMK SC1SC5SC3 SC TR SLP175
21:00
V
1 °C 12 mi 4.400 ft 150° 150° 5 kt METAR CYVR 030500Z 15005KT 12SM FEW027 BKN044 OVC054 01/M01 A3003 RMK SC1SC5SC3 SC TR SLP173
20:00
V
2 °C 15 mi 4.300 ft 110° 110° 8 kt METAR CYVR 030400Z 11008KT 15SM FEW029 BKN043 OVC053 02/M00 A3001 RMK SC1SC5SC3 SC TR SLP166
19:00
V
2 °C 15 mi 4.700 ft 090° 090° 8 kt METAR CYVR 030300Z 09008KT 15SM BKN047 OVC069 02/00 A3001 RMK SC5AC3 SLP163
18:00
V
2 °C 15 mi 4.500 ft 090° 090° 8 kt METAR CYVR 030200Z 09008KT 15SM BKN045 OVC072 02/M00 A3001 RMK SC5AC3 SLP163
17:34
V
2 °C 15 mi 4.600 ft 080° 080° 7 kt METAR CYVR 030134Z 08007KT 15SM OVC046 02/M00 A3002 RMK SC8 SLP168
17:00
V
3 °C 20 mi 4.500 ft 050° 050° 9 kt METAR CYVR 030100Z 05009KT 20SM OVC045 03/M00 A3002 RMK SC8 SLP169
16:00
V
2 °C 20 mi 3.800 ft 060° 060° 10 kt METAR CYVR 030000Z 06010KT 20SM OVC038 02/M01 A3003 RMK SC8 SLP171
15:00
V
1 °C 20 mi 3.700 ft 070° 070° 9 kt METAR CYVR 022300Z 07009KT 20SM BKN037 OVC080 01/M01 A3004 RMK SC6AC2 SLP175
14:00
M
1 °C 12 mi 2.500 ft 060° 060° 13 kt METAR CYVR 022200Z 06013KT 12SM BKN025 BKN080 BKN230 01/M01 A3004 RMK SC5AC2CI1 CI TR SLP174
13:35
M
0 °C 8 mi 2.500 ft 070° 070° 8 kt METAR CYVR 022135Z 07008KT 8SM BKN025 BKN080 BKN230 00/M00 A3005 RMK SC5AS1CI1 CI TR SLP177
13:16
I
0 °C 3 mi 2.500 ft 090° 090° 8 kt METAR CYVR 022116Z 09008KT 3SM -SN OVC025 M00/M01 A3006 RMK SC8 SLP180
13:00
I
0 °C 2 mi 2.200 ft 080° 080° 10 kt METAR CYVR 022100Z 08010KT 2SM -SN OVC022 M00/M01 A3006 RMK SC8 SLP182
12:45
I
0 °C 1½ mi 2.100 ft 100° 100° 9 kt METAR CYVR 022045Z 10009KT 1 1/2SM -SN OVC021 M00/M02 A3007 RMK SC8 SLP184
12:00
I
-1 °C 3 mi 2.300 ft 070° 070° 8 kt METAR CYVR 022000Z 07008KT 3SM -SN BKN023 OVC035 M01/M02 A3007 RMK SC6SC2 SLP185
11:34
I
-1 °C 2½ mi 3.000 ft 080° 080° 9 kt METAR CYVR 021934Z 08009KT 2 1/2SM -SN BKN030 OVC042 M01/M02 A3008 RMK SC5SC3 SLP188
11:00
V
-1 °C 7 mi 3.700 ft 100° 100° 11 kt METAR CYVR 021900Z 10011KT 7SM -SN BKN037 OVC050 M01/M03 A3008 RMK SC6SC2 SLP189
10:00
V
-2 °C 7 mi 3.600 ft 100° 100° 10 kt METAR CYVR 021800Z 10010KT 7SM -SN OVC036 M02/M04 A3008 RMK SC8 SLP190
09:48
V
-2 °C 12 mi 3.500 ft 100° 100° 9 kt METAR CYVR 021748Z 10009KT 12SM -SN OVC035 M02/M05 A3008 RMK SC8 SLP189
09:00
V
-2 °C 15 mi 3.100 ft 100° 100° 8 kt METAR CYVR 021700Z 10008KT 15SM OVC031 M02/M05 A3007 RMK SC8 SLP185
08:00
V
-3 °C 15 mi 6.200 ft 100° 100° 11 kt METAR CYVR 021600Z 10011KT 15SM SCT030 OVC062 M03/M05 A3006 RMK SC3SC5 SLP180
07:50
V
-3 °C 15 mi 6.200 ft 100° 100° 10 kt METAR CYVR 021550Z 10010KT 15SM SCT030 OVC062 M03/M05 A3006 RMK SC3SC5 SLP181
07:00
V
-4 °C 15 mi 6.400 ft 100° 100° 8 kt METAR CYVR 021500Z 10008KT 15SM -SN FEW043 BKN064 OVC082 M04/M05 A3006 RMK SC2SC4AC2 SLP180
06:00
V
-4 °C 15 mi 5.500 ft 100° 100° 8 kt METAR CYVR 021400Z 10008KT 15SM -SN SCT031 OVC055 M04/M05 A3005 RMK SC3SC5 /S01/ SLP179
05:00
V
-4 °C 12 mi 5.700 ft 090° 090° 7 kt METAR CYVR 021300Z 09007KT 12SM -SN SCT033 BKN057 M04/M06 A3005 RMK SC4SC4 PCPN VRY LGT SLP179
04:41
V
-4 °C 10 mi 3.000 ft 080° 080° 6 kt METAR CYVR 021241Z 08006KT 10SM -SN BKN030 OVC057 M04/M06 A3005 RMK SC5SC3 SLP179
04:07
M
-5 °C 4 mi 2.500 ft 090° 090° 9 kt METAR CYVR 021207Z 09009KT 4SM -SN BR BKN025 OVC034 M05/M07 A3005 RMK SC5SC3 SLP179
04:00
V
-5 °C 8 mi 3.400 ft 100° 100° 9 kt METAR CYVR 021200Z 10009KT 8SM -SN SCT026 OVC034 M05/M07 A3006 RMK SC4SC4 SLP180
03:40
V
-5 °C 10 mi 3.400 ft 110° 110° 11 kt METAR CYVR 021140Z 11011KT 10SM -SN OVC034 M05/M08 A3005 RMK SC8 SLP178
03:00
V
-4 °C 15 mi 4.700 ft 090° 090° 8 kt METAR CYVR 021100Z 09008KT 15SM SCT035 BKN047 OVC057 M04/M08 A3004 RMK SC4SC3SC1 SLP175
02:00
V
-5 °C 15 mi 7.300 ft 080° 080° 8 kt METAR CYVR 021000Z 08008KT 15SM SCT035 BKN073 M05/M09 A3003 RMK SC4AC3 SLP171

Nosotros y terceros seguimos tu comportamiento en Internet en nuestro sitio web con cookies. Si continúas, asumimos que estás de acuerdo con nuestra Política de cookies.